CYGFM04

Last updated on Sun Nov 09 2025 00:02:23 GMT+0000 (Coordinated Universal Time)

1 41885U 16078B 25312.22034732 .00029160 00000+0 53709-3 0 9998 2 41885 34.9346 247.9971 0010720 253.6980 106.2562 15.48096664494580
UTC large
Height (km)
Speed (km/s)
/
Latitude / Longitude
Inclination (degrees)
Orbital Period (minutes)
Azimuth
Elevation
Range (km)
Doppler Factor

Next 0 passes for location: London (51.5072 / 0.1276)

Sorry there are no passes over London.